Orbital Elements at Epoch 2459200.5 (2020-Dec-17.0) TDB
Reference: JPL 13 (heliocentric ecliptic J2000)
Element | Value | Uncertainty (1-sigma) | Units |
e | .1681171399780391 | 4.3167e-08 | |
a | 3.209488492961981 | 2.5003e-08 | au |
q | 2.669918466732786 | 1.3791e-07 | au |
i | 1.514867729704068 | 5.3013e-06 | deg |
node | 202.4819341227975 | 0.00018115 | deg |
peri | 219.8920007315089 | 0.00018185 | deg |
M | 232.409062988717 | 1.7939e-05 | deg |
tp | 2459944.836793699338 (2022-Dec-31.33679370) | 0.00011033 | TDB |
period | 2100.158929846762 5.75 | 2.4541e-05 6.719e-08 | d yr |
n | .1714155985453288 | 2.0031e-09 | deg/d |
Q | 3.749058519191176 | 2.9206e-08 | au |
|
| | Orbit Determination Parameters
Additional Information
|